(199947) Qaidam = 2007 HR7

Discovered at XuYi on 2007-04-16 by PMO NEO Survey Program.
(199947) Qaidam = 2007 HR7

Qaidam, meaning "salt marshes" in Mongolian, located in the north of Qinghai-Tibet Plateau, is one of the China's four big basins and the main region of Haixi Mongolian-Tibetan Autonomous Prefecture. The Qaidam basin is the largest salt reserve in the world, and is also rich in oil, coal and various metalic minerals. [Ref: Minor Planet Circ. 85914]

Orbit

Orbit type: Main Belt

Note: WebGL enabled browser required.

epoch2024-03-31.0
epoch JD2460400.5
perihelion date2020-11-02.26384
perihelion JD2459155.76384
argument of perihelion (°)242.07999
ascending node (°)56.46616
inclination (°)16.29205
eccentricity0.2909052
perihelion distance (AU)1.8692096
Tisserand w.r.t. Jupiter3.3
ΔV w.r.t. Earth (km/sec)9.9
semimajor axis (AU)2.6360505
mean anomaly (°)286.64909
mean daily motion (°/day)0.23028900
aphelion distance (AU)3.403
period (years)4.28
P-vector [x]0.44829037
P-vector [y]-0.68936136
P-vector [z]-0.56904890
Q-vector [x]0.86275950
Q-vector [y]0.50021449
Q-vector [z]0.07369882
absolute magnitude15.53
phase slope0.15
uncertainty0
referenceMPEC 2024-F62
observations used684
oppositions15
arc length (days)7601
first opposition used2003
last opposition used2024
residual rms (arc-secs)0.68
perturbers coarse indicatorM-v
perturbers precise indicator003Ek
first observation date used2003-05-29.0
last observation date used2024-03-20.0
computer nameMPCLINUX
JD of orbit computation2456670.636436
perihelion JD uncertainty (days)7.8665E-05
argument of perihelion uncertainty (°)2.8047E-05
ascending node uncertainty (°)2.1292E-05
inclination uncertainty (°)1.0565E-05
eccentricity uncertainty 5.8119E-08
perihelion distance uncertainty (AU)1.4160E-07
Minimum Orbit Intersection Distances (in AU)
for orbit epoch: 2460400.5, reference: E2024-GH2
Mercury1.42658
Venus1.16682
Earth0.91227
Mars0.51151
Jupiter1.99114
Saturn5.81834
Uranus15.3247
Neptune26.7959

Observations

700 total observations over interval: 2003 05 29.30350 – 2024 03 20.405046
These data are available for download (format description).

Date (UT) J2000 RA J2000 Dec Magn Location Ref
2003 05 29.30350 16 34 29.22 -29 19 13.5 17.2   704 – Lincoln Laboratory ETS, New Mexico MPS 213887
2003 05 29.31408 16 34 28.40 -29 19 20.5 17.4   704 – Lincoln Laboratory ETS, New Mexico MPS 213887
2003 05 29.32464 16 34 27.75 -29 19 29.1 17.5   704 – Lincoln Laboratory ETS, New Mexico MPS 213887
2003 05 29.33538 16 34 26.94 -29 19 36.5 17.7   704 – Lincoln Laboratory ETS, New Mexico MPS 213887
2003 05 29.34598 16 34 26.15 -29 19 44.3 17.9   704 – Lincoln Laboratory ETS, New Mexico MPS 213887
2003 05 31.27925 16 32 04.23 -29 40 53.8 17.2   704 – Lincoln Laboratory ETS, New Mexico MPS 213887
2003 05 31.30140 16 32 02.50 -29 41 08.5 17.7   704 – Lincoln Laboratory ETS, New Mexico MPS 213887
2003 05 31.31253 16 32 01.66 -29 41 15.6 18.1   704 – Lincoln Laboratory ETS, New Mexico MPS 213887
2003 05 31.32410 16 32 00.76 -29 41 22.9 17.7   704 – Lincoln Laboratory ETS, New Mexico MPS 213887
2004 11 04.42428 04 45 11.59 +24 54 48.0 20.1 V 691 – Steward Observatory, Kitt Peak-Spacewatch MPS 210182
2004 11 04.45811 04 45 09.72 +24 54 54.9 19.7 V 691 – Steward Observatory, Kitt Peak-Spacewatch MPS 210182
2004 11 04.49437 04 45 07.73 +24 55 01.9 20.2 V 691 – Steward Observatory, Kitt Peak-Spacewatch MPS 210182
2004 12 14.29585 04 01 40.78 +26 12 20.7 19.2 R 703 – Catalina Sky Survey MPS 210182
2004 12 14.30229 04 01 40.46 +26 12 22.6 19.6 R 703 – Catalina Sky Survey MPS 210182
2004 12 14.30873 04 01 40.08 +26 12 23.2 19.4 R 703 – Catalina Sky Survey MPS 210182
2004 12 14.31514 04 01 39.57 +26 12 22.4 19.0 R 703 – Catalina Sky Survey MPS 210182
2007 03 20.39586 14 21 12.90 +02 21 56.1 19.0 R 699 – Lowell Observatory-LONEOS MPS 210182
2007 03 20.42245 14 21 12.09 +02 21 59.5   699 – Lowell Observatory-LONEOS MPS 210182
2007 03 20.44906 14 21 11.24 +02 22 02.0   699 – Lowell Observatory-LONEOS MPS 210182
2007 03 20.47563 14 21 10.34 +02 22 06.1   699 – Lowell Observatory-LONEOS MPS 210182
2007 03 31.33647 14 14 10.53 +02 47 55.3 19.1 R 644 – Palomar Mountain/NEAT MPS 210182
2007 03 31.35819 14 14 09.47 +02 47 58.2 18.9 R 644 – Palomar Mountain/NEAT MPS 210182
2007 03 31.37870 14 14 08.46 +02 48 01.0 18.6 R 644 – Palomar Mountain/NEAT MPS 210182
2007 04 16.29089 13 58 56.13 +03 12 54.2 18.8 V 703 – Catalina Sky Survey MPS 209102
2007 04 16.29845 13 58 55.59 +03 12 54.5 18.8 V 703 – Catalina Sky Survey MPS 209102
2007 04 16.30604 13 58 55.09 +03 12 54.9 18.5 V 703 – Catalina Sky Survey MPS 209102
2007 04 16.31382 13 58 54.62 +03 12 55.3 18.3 V 703 – Catalina Sky Survey MPS 209102
2007 04 16.57483 13 58 37.83 +03 13 04.8 18.6 R D29 – Purple Mountain Observatory, XuYi Station MPS 208225
2007 04 16.60002 13 58 36.13 +03 13 06.1 18.4 R D29 – Purple Mountain Observatory, XuYi Station MPS 208225
2007 04 16.62253 13 58 34.63 +03 13 06.7 18.7 R D29 – Purple Mountain Observatory, XuYi Station MPS 208225
2007 04 16.64659 13 58 32.98 +03 13 07.5 18.9 R D29 – Purple Mountain Observatory, XuYi Station MPS 208225
2007 04 19.24087 13 55 42.21 +03 14 09.5 18.4 R 699 – Lowell Observatory-LONEOS MPS 208225
2007 04 19.26746 13 55 40.44 +03 14 09.0   699 – Lowell Observatory-LONEOS MPS 208225
2007 04 19.29403 13 55 38.63 +03 14 09.1   699 – Lowell Observatory-LONEOS MPS 208225
2007 04 19.32061 13 55 36.79 +03 14 09.9   699 – Lowell Observatory-LONEOS MPS 208225
2007 04 23.30160 13 51 09.97 +03 13 28.7 18.4 V 703 – Catalina Sky Survey MPS 208225
2007 04 23.31105 13 51 09.36 +03 13 28.3 18.7 V 703 – Catalina Sky Survey MPS 208225
2007 04 23.32046 13 51 08.71 +03 13 28.2 18.8 V 703 – Catalina Sky Survey MPS 208225
2007 04 23.32991 13 51 08.02 +03 13 27.4 18.8 V 703 – Catalina Sky Survey MPS 208225
2007 04 26.22050 13 47 53.70 +03 11 09.4 18.5 V G96 – Mt. Lemmon Survey MPS 208225
2007 04 26.22664 13 47 53.30 +03 11 09.0 18.5 V G96 – Mt. Lemmon Survey MPS 208225
2007 04 26.23281 13 47 52.87 +03 11 08.7 18.6 V G96 – Mt. Lemmon Survey MPS 208225
2007 04 26.23898 13 47 52.44 +03 11 08.2 18.6 V G96 – Mt. Lemmon Survey MPS 208225
2007 05 19.23099 13 25 17.04 +01 52 51.3 19.1 V 703 – Catalina Sky Survey MPS 210182
2007 05 19.24071 13 25 16.42 +01 52 46.2 18.8 V 703 – Catalina Sky Survey MPS 210182
2007 05 19.25042 13 25 16.10 +01 52 44.2 18.4 V 703 – Catalina Sky Survey MPS 210182
2007 05 19.26013 13 25 15.74 +01 52 41.5 18.0 V 703 – Catalina Sky Survey MPS 210182
2007 05 23.20200 13 22 30.18 +01 28 29.8 18.8 V G96 – Mt. Lemmon Survey MPS 210182
2007 05 23.20757 13 22 29.92 +01 28 27.6 18.9 V G96 – Mt. Lemmon Survey MPS 210182
2007 05 23.21310 13 22 29.71 +01 28 25.5 18.9 V G96 – Mt. Lemmon Survey MPS 210182
2007 05 23.21869 13 22 29.49 +01 28 23.3 19.1 V G96 – Mt. Lemmon Survey MPS 210182
2007 06 09.23103 13 15 49.96 -00 46 37.3 19.6 V 703 – Catalina Sky Survey MPS 210727
2007 06 09.23856 13 15 49.86 -00 46 39.8 19.0 V 703 – Catalina Sky Survey MPS 210727
2007 06 09.24611 13 15 49.71 -00 46 45.4 19.8 V 703 – Catalina Sky Survey MPS 210727
2007 06 09.25365 13 15 49.71 -00 46 49.4 19.7 V 703 – Catalina Sky Survey MPS 210727
2008 09 23.35249 03 31 22.00 +09 29 08.4 19.3   704 – Lincoln Laboratory ETS, New Mexico MPS 256773
2008 09 23.36442 03 31 21.80 +09 29 09.8 19.9   704 – Lincoln Laboratory ETS, New Mexico MPS 256773
2008 09 23.40019 03 31 21.00 +09 29 13.6 20.2   704 – Lincoln Laboratory ETS, New Mexico MPS 256773
2008 09 29.43867 03 28 57.68 +09 37 46.0 19.6 V 703 – Catalina Sky Survey MPS 258021
2008 09 29.44942 03 28 57.25 +09 37 46.5 19.5 V 703 – Catalina Sky Survey MPS 258021
2008 09 29.46029 03 28 56.92 +09 37 47.0 19.3 V 703 – Catalina Sky Survey MPS 258021
2008 09 29.47127 03 28 56.56 +09 37 48.3 19.1 V 703 – Catalina Sky Survey MPS 258021
2008 09 30.34534 03 28 30.36 +09 38 56.2 19.5   704 – Lincoln Laboratory ETS, New Mexico MPS 258021
2008 09 30.35766 03 28 29.96 +09 38 57.4 19.8   704 – Lincoln Laboratory ETS, New Mexico MPS 258021
2008 09 30.37012 03 28 29.52 +09 38 57.7 19.5   704 – Lincoln Laboratory ETS, New Mexico MPS 258021
2008 09 30.38247 03 28 29.14 +09 38 58.5 19.3   704 – Lincoln Laboratory ETS, New Mexico MPS 258021
2008 09 30.39490 03 28 28.67 +09 38 59.4 19.7   704 – Lincoln Laboratory ETS, New Mexico MPS 258021
2008 10 07.37800 03 24 07.20 +09 47 14.3 19.0 V 703 – Catalina Sky Survey MPS 259320
2008 10 07.38591 03 24 06.84 +09 47 15.2 19.6 V 703 – Catalina Sky Survey MPS 259320
2008 10 07.39388 03 24 06.51 +09 47 15.8 19.1 V 703 – Catalina Sky Survey MPS 259320
2008 10 07.40176 03 24 06.15 +09 47 16.2 19.5 V 703 – Catalina Sky Survey MPS 259320
2008 10 22.67911 03 10 10.84 +10 02 42.9 18.8 C D35 – Lulin Observatory MPS 260650
2008 10 22.68747 03 10 10.30 +10 02 43.4 19.1 C D35 – Lulin Observatory MPS 260650
2008 10 22.69580 03 10 09.74 +10 02 44.0 18.7 C D35 – Lulin Observatory MPS 260650
2008 10 25.30145 03 07 20.42 +10 05 21.1 18.1 V 703 – Catalina Sky Survey MPS 261634
2008 10 25.31295 03 07 19.56 +10 05 19.5 18.4 V 703 – Catalina Sky Survey MPS 261634
2008 10 25.32463 03 07 18.73 +10 05 20.5 18.8 V 703 – Catalina Sky Survey MPS 261634
2008 10 25.33625 03 07 18.01 +10 05 21.2 19.0 V 703 – Catalina Sky Survey MPS 261634
2008 10 26.30480 03 06 13.55 +10 06 21.1 18.9   704 – Lincoln Laboratory ETS, New Mexico MPS 261634
2008 10 26.31644 03 06 12.78 +10 06 21.3 20.3   704 – Lincoln Laboratory ETS, New Mexico MPS 261634
2008 10 26.33950 03 06 11.11 +10 06 21.4 19.9   704 – Lincoln Laboratory ETS, New Mexico MPS 261634
2008 10 26.35104 03 06 10.44 +10 06 23.7 19.5   704 – Lincoln Laboratory ETS, New Mexico MPS 261634
2008 10 29.44419 03 02 40.88 +10 09 39.0 18.7 V G96 – Mt. Lemmon Survey MPS 261634
2008 10 29.45040 03 02 40.45 +10 09 39.4 18.7 V G96 – Mt. Lemmon Survey MPS 261634
2008 10 29.45665 03 02 39.98 +10 09 39.9 18.8 V G96 – Mt. Lemmon Survey MPS 261634
2008 10 29.46302 03 02 39.55 +10 09 40.2 18.5 V G96 – Mt. Lemmon Survey MPS 261634
